User: anonymous   Login
Location: C�mpuri de-Sus
(45.9500°N, 22.5500°E)
Time: 13:04:00
(UTC+00:00)
Language:

Cosmos 839 Rocket - Orbit

View from above orbital plane
View from above orbital plane
View from above satellite
View from above satellite

Ground track
Ground track

The orbit data is extracted from the following two-line orbital elements,

1 09013U 76067B   22023.92250328 -.00000039  00000-0  50233-4 0  9999
2 09013  65.8678 341.0986 0708493 134.9171 231.1603 12.35346073 54024
Epoch (UTC): 23 January 2022 22:08:24
Eccentricity: 0.0708493
inclination: 65.8678°
perigee height: 966 km
apogee height: 2086 km
right ascension of ascending node: 341.0986°
argument of perigee: 134.9171°
revolutions per day: 12.35346073
mean anomaly at epoch: 231.1603°
orbit number at epoch: 5402

The dashed part of the orbit path shows where the satellite is in the earth's shadow,  

DLR